Flag for U.S.A. Weather past 2 weeks in French Lick, Indiana, U.S.A.

Now
37 °F

Clear.


Feels Like: 29 °F
Forecast: 34 / 46 °F
Wind: 14 mph from Southeast

Location: Huntingburg Airport

Current Time: Jan 28, 2015 at 11:29:59 PM

Latest Report: Jan 28, 2015 at 10:55 PM


Visibility: 10 mi

Pressure: 30.06 "Hg

Humidity: 48%

Dew point: 19 °F

Location of French LickLocation

Historic Weather in French Lick — Graph

°F

French Lick temperature yesterday

Maximum temperature yesterday: 34 °F (at 1:35 PM)
Minimum temperature yesterday: 28 °F (at 12:15 AM)
Average temperature yesterday: 31 °F

Past Weeks' High & Low Weather Summary

 TemperatureHumidityPressure
High55 °F (Jan 20, 2:55 PM)93% (Jan 15, 11:15 PM)30.45 "Hg (Jan 15, 11:15 PM)
Low19 °F (Jan 14, 5:35 AM)39% (Jan 28, 3:35 PM)29.61 "Hg (Jan 25, 1:35 PM)
Average34 °F72%30.08 "Hg
* Reported Jan 13 10:15 PM — Jan 28 10:15 PM, French Lick, Weather by CustomWeather, © 2014

Note: Actual official high and low records may vary slightly from our data, if they occured in-between our weather recording intervals... More about our weather records

Advertising

French Lick weather history for previous 24 hours

 ConditionsComfort  
Time TempWeatherWind HumidityBarometerVisibility
10:15 PM
Jan 28
36 °FClear.12 mph52%30.10 "Hg10 mi
9:55 PM36 °FClear.7 mph52%30.12 "Hg10 mi
9:35 PM36 °FClear.10 mph52%30.11 "Hg10 mi
9:15 PM36 °FClear.12 mph52%30.11 "Hg10 mi
8:55 PM36 °FClear.12 mph52%30.12 "Hg10 mi
8:35 PM36 °FClear.13 mph52%30.12 "Hg10 mi
8:15 PM37 °FClear.10 mph48%30.14 "Hg10 mi
7:55 PM37 °FClear.10 mph48%30.15 "Hg10 mi
7:35 PM37 °FClear.13 mph48%30.15 "Hg10 mi
7:15 PM36 °FClear.10 mph52%30.16 "Hg10 mi
6:55 PM36 °FClear.10 mph52%30.17 "Hg10 mi
6:35 PM37 °FClear.8 mph48%30.18 "Hg10 mi
6:15 PM37 °FClear.9 mph48%30.17 "Hg10 mi
5:55 PM39 °FSunny.10 mph45%30.18 "Hg10 mi
5:35 PM41 °FSunny.8 mph39%30.18 "Hg10 mi
5:15 PM41 °FSunny.12 mph42%30.19 "Hg10 mi
4:35 PM41 °FSunny.9 mph42%30.20 "Hg10 mi
4:15 PM41 °FSunny.9 mph42%30.21 "Hg10 mi
3:55 PM41 °FSunny.10 mph42%30.22 "Hg10 mi
3:35 PM41 °FSunny.12 mph39%30.22 "Hg10 mi
3:15 PM41 °FSunny.14 mph42%30.23 "Hg10 mi
2:55 PM39 °FSunny.10 mph42%30.24 "Hg10 mi
2:35 PM39 °FSunny.10 mph42%30.25 "Hg10 mi
2:15 PM37 °FSunny.12 mph41%30.25 "Hg10 mi
1:55 PM37 °FSunny.12 mph45%30.26 "Hg10 mi
1:35 PM37 °FSunny.9 mph41%30.28 "Hg10 mi
1:15 PM36 °FSunny.9 mph48%30.30 "Hg10 mi
12:55 PM36 °FSunny.9 mph44%30.32 "Hg10 mi
12:35 PM34 °FSunny.10 mph51%30.32 "Hg10 mi
12:15 PM34 °FSunny.10 mph48%30.33 "Hg10 mi
11:55 AM32 °FSunny.12 mph55%30.34 "Hg10 mi
11:35 AM30 °FSunny.8 mph59%30.36 "Hg10 mi
11:15 AM30 °FSunny.7 mph59%30.36 "Hg10 mi
10:55 AM28 °FSunny.8 mph59%30.37 "Hg10 mi
10:35 AM28 °FSunny.8 mph59%30.37 "Hg10 mi
10:15 AM28 °FSunny.8 mph64%30.36 "Hg10 mi
9:55 AM27 °FSunny.10 mph64%30.35 "Hg10 mi
9:35 AM27 °FSunny.8 mph64%30.35 "Hg10 mi
9:15 AM25 °FSunny.8 mph69%30.35 "Hg10 mi
8:55 AM25 °FSunny.7 mph69%30.36 "Hg10 mi
8:35 AM23 °FSunny.8 mph74%30.35 "Hg10 mi
8:15 AM23 °FSunny.8 mph74%30.34 "Hg10 mi
7:55 AM23 °FClear.10 mph74%30.33 "Hg10 mi
7:35 AM23 °FClear.9 mph74%30.34 "Hg10 mi
6:55 AM23 °FClear.7 mph74%30.33 "Hg10 mi
6:35 AM23 °FClear.7 mph74%30.32 "Hg10 mi
6:15 AM23 °FClear.6 mph74%30.32 "Hg10 mi
5:55 AM23 °FClear.7 mph74%30.32 "Hg10 mi
5:35 AM25 °FClear.5 mph69%30.32 "Hg10 mi
5:15 AM25 °FClear.6 mph69%30.32 "Hg10 mi
4:55 AM25 °FClear.6 mph74%30.30 "Hg10 mi
4:35 AM25 °FClear.6 mph74%30.31 "Hg10 mi
4:15 AM25 °FClear.5 mph74%30.31 "Hg10 mi
3:55 AM27 °FClear.5 mph69%30.29 "Hg10 mi
3:35 AM27 °FPassing clouds.6 mph69%30.30 "Hg10 mi
3:15 AM27 °FOvercast.6 mph74%30.29 "Hg10 mi
2:55 AM28 °FOvercast.6 mph69%30.29 "Hg10 mi
2:35 AM28 °FOvercast.8 mph69%30.29 "Hg10 mi
2:15 AM28 °FOvercast.8 mph69%30.29 "Hg10 mi
1:55 AM30 °FOvercast.7 mph69%30.28 "Hg10 mi
1:35 AM30 °FOvercast.7 mph75%30.28 "Hg10 mi
1:15 AM30 °FOvercast.6 mph80%30.29 "Hg10 mi
12:55 AM30 °FOvercast.5 mph80%30.28 "Hg10 mi
12:35 AM30 °FOvercast.3 mph80%30.27 "Hg10 mi
12:15 AM30 °FOvercast.3 mph80%30.27 "Hg10 mi
11:55 PM
Jan 27
30 °FOvercast.5 mph80%30.27 "Hg10 mi
11:35 PM30 °FOvercast.3 mph80%30.26 "Hg10 mi
11:15 PM30 °FOvercast.3 mph80%30.25 "Hg10 mi
Weather by CustomWeather, © 2014

See weather overviewHow to use our weather pages